GLOBAL-17 (49949 NORAD) Tracking and Keplerian Element Data
This shows tracking and keplerian element data for the satellite.
Feedback or suggestion? Click here.
Element | Value |
Catalog | 49949 |
Name | GLOBAL-17 |
Epoch Orbit | 2508 |
Epoch Day | 140.065344 |
Epoch Year | 2022 |
RAAN | 136.8459 |
Inclination | 42.0052 |
Eccentricity | 0.0003146 |
Argument of Perigee | 268.1189 |
Mean Anonmoly | 91.9293 |
Mean Motion | 15.44786762 |
Decay Rate | 0.00029313 |
L1 | 1 49949U 21120A 22140.06534400 .00029313 00000+0 61477-3 0 9997 |
L2 | 2 49949 42.0052 136.8459 0003146 268.1189 91.9293 15.44786762 25083 |
Live tracking and technical data element details for GLOBAL-17 (NORAD 49949). GLOBAL-17 can be tracked NOW for your location showing map with azimuth and elevation plus other details from your city location.
Track the satellite on the map from your city or location and see movement details for azimuth, elevation, latitude, longitude, range, height, and movement on the map or in text.
IsCatalogInMostPopularTable: catalog: 49949, numindb: 22
Update: records affected: 1
GetName: 49949 GLOBAL-17
Hit Count: updated at: Mon, 23 May 2022 20:21:33 GMT